Regional Weather Roundup
Issued by NWS Newport/Morehead, NC

Current Version | Previous Version | Graphics & Text | Print | Product List | Glossary Off
Versions: 1 2 3 4 5 6 7 8 9 10 11 12 13 14 15 16 17 18 19 20 21 22 23 24 25 26 27 28 29 30 31 32 33 34 35 36 37 38 39 40 41

000
ASUS42 KMHX 211713
RWRMHX
WEATHER ROUNDUP FOR EASTERN NORTH CAROLINA
NATIONAL WEATHER SERVICE NEWPORT/MOREHEAD CITY NC
100 PM EDT SAT APR 21 2018

NOTE: "FAIR" INDICATES FEW OR NO CLOUDS BELOW 12,000 FEET
WITH NO SIGNIFICANT WEATHER AND/OR OBSTRUCTIONS TO VISIBILITY

NCZ015>017-031-032-045>047-102-103-211800-
NORTH COAST

CITY           SKY/WX    TMP DP  RH WIND       PRES   REMARKS
EDENTON        FAIR      61  40  46 S3        30.44F
ELIZABETH CITY FAIR      60  43  53 VRB7      30.44F
KITTY HAWK     FAIR      52  39  60 NE6       30.44F
MANTEO         FAIR      53  40  60 NE9       30.46F

$$

NCZ045>047-081-094-103-104-211800-
CENTRAL COAST

CITY           SKY/WX    TMP DP  RH WIND       PRES   REMARKS
FRISCO         FAIR      58  42  55 NE10G17   30.44F

$$

NCZ095-097-098-100-101-211800-
SOUTHERN COAST

CITY           SKY/WX    TMP DP  RH WIND       PRES   REMARKS
BEAUFORT       FAIR      63  38  39 E10       30.41F
CEDAR ISLAND   NOT AVBL
JACKSONVILLE   FAIR      64  35  34 VRB5      30.40F
PINEY ISLAND   NOT AVBL
WILMINGTON     FAIR      63  33  32 E10       30.41F


$$

NCZ011>013-027>030-043-044-078>080-089-090>093-098-211800-
COASTAL PLAIN

CITY           SKY/WX    TMP DP  RH WIND       PRES   REMARKS
AHOSKIE        FAIR      60  33  35 N3        30.42F
CLINTON        FAIR      65  39  39 CALM      30.41F
ELIZABETHTOWN  FAIR      66  35  31 MISG      30.40F
GOLDSBORO      FAIR      64  37  37 E7        30.39F
GREENVILLE     FAIR      64  34  32 CALM      30.41F
HAVELOCK       SUNNY     65  38  36 CALM      30.42F
KENANSVILLE    FAIR      64  34  32 N5        30.41F
KINSTON        FAIR      63  34  34 SE6       30.42F
NEW BERN       FAIR      63  35  35 E5        30.42F
RICHLANDS      FAIR      65  34  31 N8        30.41F
ROCKY MOUNT    FAIR      64  31  28 N8        30.41F
WASHINGTON     FAIR      65  31  27 NE3       30.42F
WHITEVILLE     FAIR      65  35  32 E8G16     30.39F

$$

AMZ130-135-150-152-154-156-158-170-250-252-270-ANZ085-086-088-633-658-670-211800-
MARINE OBSERVATIONS

STATION/POSITION TIME  TEMP    WIND        PRES    WAVE   SWELL
                       AIR SEA DIR/SP/G            HT/PER HT/PER
                 (UTC) (F)     (DEG/KT/KT) (MB)    (FT/S) (FT/S)
CHESAPEAKE LIGHT NOT AVBL
64 E VA BEACH    1650   46 49  350/ 10/ 12 1031.6    3/ 5   2/ 5
DUCK             1648   48 52   30/  6/  8 1031.1
2 E DUCK         1700      52                N/A     2/13
OREGON INLET     1642   50 55   30/ 10/ 12 1030.9
13E OREGON INLT  1648      50                N/A     3/ 6   2/ 6
HATTERAS CG      NOT AVBL
DIAMOND BUOY     1700   54 71   10/ 14/ 17 1030.8
CAPE LOOKOUT     1700           60/ 12/ 14 1030.5
BEAUFORT LAB     1648   59 62  120/  9/ 12 1030.1
30 SE NEW RVR IN 1608   59 66   70/ 10/ 14 1030.4
30 SE NEW RVR IN 1700      66                N/A     4/ 8
27 SE WRIGHTSVLE 1608   60 66   60/ 17/ 25 1029.9
5 SE WRIGHTSVLE  NOT AVBL
225 S CAPE HAT   1700   64 73   60/  8/ 12 1027.1
41 SE CHARLESTON 1700   66 67   60/ 16/ 17 1027.3

$$




USA.gov is the U.S. government's official web portal to all federal, state and local government web resources and services.